AirNav   Air Wisconsin pilot careers
 
 1038 users online  

9S1 Four Winds Airport
Celina, Texas, USA

GOING TO CELINA?


FAA INFORMATION EFFECTIVE 21 JUNE 2018

Location

FAA Identifier: 9S1
Lat/Long: 33-22-05.7950N / 096-45-16.9000W
33-22.096583N / 096-45.281667W
33.3682764 / -96.7546944
(estimated)
Elevation: 790 ft. / 241 m (estimated)
From city: 3 miles NE of CELINA, TX
Time zone: UTC -5 (UTC -6 during Standard Time)
Zip code: 75009

Airport Operations

Airport use: Open to the public
Activation date: 05/2007
Control tower: no
ARTCC: FORT WORTH CENTER
FSS: FORT WORTH FLIGHT SERVICE STATION
NOTAMs facility: FTW (NOTAM-D service available)
Attendance: DAWN-DUSK
Wind indicator: yes
Segmented circle: no

Airport Communications

CTAF: 122.9
WX ASOS at TKI (14 nm SE): 119.925 (972-548-8525)

Nearby radio navigation aids

VOR radial/distance  VOR name  Freq  Var
BYPr243/28.0BONHAM VORTAC114.6006E
CVEr009/29.6COWBOY VOR/DME116.2006E
TTTr020/33.2MAVERICK VOR/DME113.1006E
FUZr031/35.8RANGER VORTAC115.7006E
URHr203/39.0TEXOMA VOR/DME114.3005E

 
NDB name  Hdg/Dist  Freq  Var  ID
MELISA305/10.542103EVLY ...- .-.. -.--
DENISON183/27.834106EDNI -.. -. ..
CADDO MILLS302/32.231606EMII -- .. ..
MESQUITE338/35.424803EPQF .--. --.- ..-.

Airport Services

Runway Information

Runway 18/36

Dimensions: 2662 x 100 ft. / 811 x 30 m
Surface: turf, in good condition
RUNWAY 18  RUNWAY 36
Latitude: 33-22.316000N33-21.877167N
Longitude: 096-45.278500W096-45.284833W
Elevation: 780.0 ft.787.0 ft.
Traffic pattern: rightleft
Obstructions: 21 ft. trees, 72 ft. from runway, 78 ft. left of centerline, 3:1 slope to clear13 ft. sign, 9 ft. from runway, 123 ft. left of centerline
19 FT ROAD 66 FT FM THLD CROSSING CNTRLN. 5 FT FENCE 39 FT FM THLD CROSSING CNTRLN. 45 FT BUILDING 588 FT FM THLD, 51 FT LEFT OF CNTRLN.

Airport Ownership and Management from official FAA records

Ownership: Privately-owned
Owner: FOUR WINDS ENTERPRISES
10000 CR 134
CELINA, TX 75009
Phone 972-382-8664
Manager: STEWART & AVERILLE DAWSON
10000 CR 134
CELINA, TX 75009
Phone 214-803-7533

Airport Operational Statistics

Aircraft based on the field: 4
Single engine airplanes: 4
    
Aircraft operations: avg 33/month *
50% transient general aviation
50% local general aviation
* for 12-month period ending 31 December 2015

Additional Remarks

ALL TFC REMAIN WEST OF THE ARPT.
RY 17 - 15 FT DROP NORTH OF THLD.
FOR CD CTC REGIONAL APCH AT 972-615-2799.

Instrument Procedures

There are no published instrument procedures at 9S1.

Some nearby airports with instrument procedures:

KTKI - McKinney National Airport (14 nm SE)
KSWI - Sherman Municipal Airport (18 nm NE)
KGYI - North Texas Regional Airport/Perrin Field (21 nm N)
KADS - Addison Airport (24 nm S)
KDTO - Denton Enterprise Airport (24 nm SW)
 
Loc | Ops | Rwys | IFR | FBO | Links
Com | Nav | Svcs | Stats | Notes

AirNav Hotels Sweepstakes
 
Area around 9S1 (Four Winds Airport)
 
Road maps at: MapQuest Bing Google
 
Aerial photo
No photo
 
Sectional chart

 
Airport distance calculator
Flying to Four Winds Airport? Find the distance to fly.

From to 9S1

Sunrise and sunset
Times for 23-Jun-2018
 Local
(UTC-5)
 Zulu
(UTC)
Morning civil twilight05:5010:50
Sunrise06:1911:19
Sunset20:3901:39
Evening civil twilight21:0802:08

Current date and time
Zulu (UTC)  23-Jun-2018 20:58:03
Local (UTC-5)  23-Jun-2018 15:58:03
 
METAR
KTKI 
14nm SE 
232053Z 15015G23KT 10SM SCT060 33/22 A2977 RMK AO2 SLP073 T03330222 56025
KGYI 
21nm N 
232035Z AUTO 16012G16KT 10SM SCT038 35/23 A2979 RMK AO2 T03470228
KADS 
24nm S 
232047Z 14016G23KT 10SM BKN046 BKN060 34/21 A2977
KDTO 
25nm SW 
232053Z 15014G20KT 10SM BKN065 36/21 A2975 RMK AO2 SLP063 T03560211 56026
KGLE 
28nm NW 
232035Z AUTO 16013G20KT 10SM SCT045 SCT060 SCT070 34/22 A2979 RMK AO2
TAF
KDFW 
31nm SW 
231733Z 2318/2424 10008KT P6SM BKN035 FM231930 17017KT P6SM SCT050 BKN300 FM240400 17018KT P6SM VCTS BKN040CB OVC150 TEMPO 2406/2409 35015G25KT 4SM TSRA BKN025CB OVC060 FM241000 16014KT P6SM BKN022 BKN150 FM241600 17020KT P6SM SCT040
KDAL 
31nm S 
231733Z 2318/2418 10008KT P6SM BKN035 FM231900 17017KT P6SM SCT050 BKN300 FM240400 17018KT P6SM VCTS BKN040CB OVC150 TEMPO 2406/2409 35015G25KT 4SM TSRA BKN025CB OVC060 FM241000 16014KT P6SM BKN022 BKN150 FM241600 17018KT P6SM SCT040
KAFW 
37nm SW 
231733Z 2318/2418 10008KT P6SM BKN035 FM231930 17017KT P6SM SCT050 BKN300 FM240400 17018KT P6SM VCTS BKN040CB OVC150 TEMPO 2405/2408 35015G25KT 4SM TSRA BKN025CB OVC060 FM241000 16014KT P6SM BKN022 BKN150 FM241600 17020KT P6SM SCT040
NOTAMs
Click for the latest NOTAMs
NOTAMs are issued by the DoD/FAA and will open in a separate window not controlled by AirNav.

 

 
 

Would you like to see your business listed on this page?

 If your business provides an interesting product or service to pilots, flight crews, aircraft, or users of the Four Winds Airport, you should consider listing it here.  To start the listing process, click on the button below
 
Add a business
 

Other Pages about Four Winds Airport

Update a link
 
Copyright © AirNav, LLC. All rights reserved. Privacy Policy  Contact